Kalamazoo, MI

3:05 AM EDT on October 15, 2019 (GMT -0400)
Kalamazoo-Battle Creek International

Weather History for KAZO - August, 2019

Change the Weather History Date:

Sunday, August 25, 2019

  Actual Average Record
Temperature  
Mean Temperature 66 °F 70 °F  
Max Temperature 81 °F 80 °F 98 °F (1948)
Min Temperature 51 °F 59 °F 43 °F (1956)
Degree Days  
Heating Degree Days 0 1  
Month to date heating degree days 1 1  
Since 1 June heating degree days 41 54  
Since 1 July heating degree days 1 6  
Cooling Degree Days 1 5  
Month to date cooling degree days 182 158  
Year to date cooling degree days 697 584  
Since 1 June cooling degree days 682 543  
Growing Degree Days 16 (Base 50)    
Moisture  
Dew Point 52 °F    
Average Humidity 64    
Maximum Humidity 89    
Minimum Humidity 39    
Precipitation  
Precipitation 0.00 in 0.13 in 1.56 in (1940)
Month to date precipitation 1.28 3.02  
Year to date precipitation 24.60 22.74  
Sea Level Pressure  
Sea Level Pressure 30.16 in    
Wind  
Wind Speed 5 mph (ESE)    
Max Wind Speed 14 mph    
Max Gust Speed 22 mph    
Visibility 10 miles    
Events      
T = Trace of Precipitation, MM = Missing Value Source: NWS Daily Summary

Daily Weather History Graph

Daily Weather History Graph

Search for Another Location

Airport or City:

Astronomy

Aug. 25, 2019 Rise Set
Actual Time 6:59 AM EDT 8:27 PM EDT
Civil Twilight 6:30 AM EDT 8:57 PM EDT
Nautical Twilight 5:55 AM EDT 9:32 PM EDT
Astronomical Twilight 5:17 AM EDT 10:09 PM EDT
Moon 1:31 AM EDT (8/25) 4:51 PM EDT (8/25)
Length of Visible Light 14h 26m
Length of Day
13h 27m
Waning Crescent, 29% of the Moon is Illuminated
Aug 25
Waning Crescent
Aug 30
New
Sep 5
First Quarter
Sep 14
Full
Sep 21
Last Quarter

Hourly Weather History & Observations

Time (EDT) Temp. Heat Index Dew Point Humidity Pressure Visibility Wind Dir Wind Speed Gust Speed Precip Events Conditions
12:53 AM 59.0 °F - 51.1 °F 75% 30.25 in 10.0 mi Calm Calm - N/A   Clear
1:53 AM 57.0 °F - 50.0 °F 77% 30.24 in 10.0 mi Calm Calm - N/A   Clear
2:53 AM 55.9 °F - 50.0 °F 80% 30.23 in 10.0 mi Calm Calm - N/A   Clear
3:53 AM 55.9 °F - 50.0 °F 80% 30.22 in 10.0 mi East 3.5 mph - N/A   Clear
4:53 AM 55.0 °F - 50.0 °F 83% 30.20 in 10.0 mi East 3.5 mph - N/A   Clear
5:53 AM 55.0 °F - 50.0 °F 83% 30.21 in 10.0 mi Calm Calm - N/A   Clear
6:53 AM 51.1 °F - 48.0 °F 89% 30.22 in 10.0 mi Calm Calm - N/A   Clear
7:53 AM 55.9 °F - 52.0 °F 87% 30.22 in 10.0 mi Calm Calm - N/A   Clear
8:53 AM 63.0 °F - 55.0 °F 75% 30.22 in 10.0 mi East 3.5 mph - N/A   Clear
9:53 AM 66.9 °F - 54.0 °F 63% 30.21 in 10.0 mi ESE 4.6 mph - N/A   Clear
10:53 AM 71.1 °F - 53.1 °F 53% 30.22 in 10.0 mi Variable 4.6 mph - N/A   Clear
11:53 AM 73.9 °F - 51.1 °F 45% 30.19 in 10.0 mi Variable 6.9 mph - N/A   Clear
12:53 PM 75.9 °F - 50.0 °F 40% 30.17 in 10.0 mi Variable 6.9 mph 19.6 mph N/A   Clear
1:53 PM 75.9 °F - 50.0 °F 40% 30.15 in 10.0 mi SE 8.1 mph - N/A   Clear
2:53 PM 79.0 °F - 52.0 °F 39% 30.12 in 10.0 mi SSE 8.1 mph 18.4 mph N/A   Clear
3:53 PM 80.1 °F 79.9 °F 53.1 °F 39% 30.10 in 10.0 mi SE 9.2 mph - N/A   Clear
4:53 PM 79.0 °F - 52.0 °F 39% 30.09 in 10.0 mi ESE 10.4 mph 17.3 mph N/A   Clear
5:53 PM 78.1 °F - 52.0 °F 40% 30.07 in 10.0 mi ESE 6.9 mph 17.3 mph N/A   Clear
6:53 PM 75.0 °F - 52.0 °F 44% 30.07 in 10.0 mi ESE 10.4 mph 18.4 mph N/A   Clear
7:53 PM 72.0 °F - 53.1 °F 51% 30.06 in 10.0 mi ESE 6.9 mph - N/A   Clear
8:53 PM 68.0 °F - 53.1 °F 59% 30.08 in 10.0 mi East 3.5 mph - N/A   Clear
9:53 PM 64.9 °F - 53.1 °F 65% 30.08 in 10.0 mi East 4.6 mph - N/A   Clear
10:53 PM 64.9 °F - 53.1 °F 65% 30.07 in 10.0 mi Variable 4.6 mph - N/A   Clear
11:53 PM 64.0 °F - 54.0 °F 70% 30.06 in 10.0 mi Variable 5.8 mph - N/A   Clear